Weather History for Toledo, OH

Change the Weather History Date:

Thursday, January 24, 2013

  Actual Average Record
Temperature  
Mean Temperature 14 °F 25 °F  
Max Temperature 21 °F 33 °F 64 °F (1909)
Min Temperature 7 °F 18 °F -17 °F (1963)
Degree Days  
Heating Degree Days 51 40  
Month to date heating degree days 907 951  
Since 1 July heating degree days 3158 3276  
Cooling Degree Days 0 0  
Month to date cooling degree days 0 0  
Year to date cooling degree days 0 0  
Moisture  
Dew Point 5 °F    
Average Humidity 61    
Maximum Humidity 83    
Minimum Humidity 39    
Precipitation  
Precipitation T in 0.06 in 0.45 in (1965)
Month to date precipitation 2.80 1.62  
Year to date precipitation 2.80 1.62  
Snow  
Snow 0.10 in 0.40 in - ()
Month to date snowfall 1.0 8.9  
Since 1 July snowfall 8.0 18.4  
Snow Depth T in    
Sea Level Pressure  
Sea Level Pressure 30.43 in    
Wind  
Wind Speed 7 mph (NNW)    
Max Wind Speed 14 mph    
Max Gust Speed 21 mph    
Visibility 9 miles    
Events Snow    
T = Trace of Precipitation, MM = Missing Value Source: NWS Daily Summary

Daily Weather History Graph

Daily Weather History Graph

Search for Another Location

Airport:

Trip Planner

Search our weather history database for the weather conditions in past years. The results will help you decide how hot, cold, wet, or windy it might be!

Date:

Astronomy

Jan. 24, 2013 Rise Set
Actual Time 7:53 AM EST 5:41 PM EST
Civil Twilight 7:24 AM EST 6:11 PM EST
Nautical Twilight 6:50 AM EST 6:44 PM EST
Astronomical Twilight 6:17 AM EST 7:17 PM EST
Moon 3:42 PM EST 5:51 AM EST
Length of Visible Light 10h 47m
Length of Day
9h 47m
Waxing Gibbous, 94% of the Moon is Illuminated
Jan 24
Waxing Gibbous
Jan 26
Full
Feb 3
Last Quarter
Feb 10
New
Feb 17
First Quarter

Hourly Weather History & Observations

Time (EST) Temp. Windchill Dew Point Humidity Pressure Visibility Wind Dir Wind Speed Gust Speed Precip Events Conditions
12:39 AM 15.8 °F 7.2 °F 12.2 °F 86% 30.09 in 2.5 mi NW 5.8 mph - 0.00 in Snow Light Snow
12:52 AM 15.1 °F 3.3 °F 10.9 °F 84% 30.14 in 3.0 mi NW 9.2 mph - 0.00 in Snow Light Snow
1:00 AM 14.0 °F 2.0 °F 10.4 °F 86% 30.11 in 2.5 mi NNW 9.2 mph - 0.00 in Snow Light Snow
1:09 AM 14.0 °F 1.2 °F 10.4 °F 86% 30.11 in 5.0 mi NNW 10.4 mph - 0.00 in Snow Light Snow
1:35 AM 14.0 °F 1.2 °F 8.6 °F 79% 30.13 in 10.0 mi NNW 10.4 mph - 0.00 in   Scattered Clouds
1:52 AM 12.9 °F -0.2 °F 7.0 °F 77% 30.19 in 10.0 mi NNW 10.4 mph 18.4 mph 0.00 in   Clear
2:52 AM 12.0 °F -2.0 °F 6.1 °F 77% 30.24 in 10.0 mi NNW 11.5 mph - N/A   Clear
3:52 AM 10.9 °F -3.4 °F 6.1 °F 81% 30.30 in 10.0 mi NNW 11.5 mph - N/A   Clear
4:52 AM 10.0 °F -3.7 °F 5.0 °F 80% 30.34 in 10.0 mi NNW 10.4 mph - N/A   Clear
5:52 AM 9.0 °F -5.1 °F 3.9 °F 80% 30.39 in 10.0 mi NNW 10.4 mph - N/A   Clear
6:52 AM 8.1 °F -3.2 °F 3.0 °F 80% 30.43 in 10.0 mi NW 6.9 mph - N/A   Clear
7:52 AM 7.0 °F -5.7 °F 1.9 °F 80% 30.48 in 10.0 mi NW 8.1 mph - N/A   Clear
8:52 AM 9.0 °F -3.2 °F 3.0 °F 77% 30.51 in 10.0 mi NNW 8.1 mph - N/A   Clear
9:52 AM 12.0 °F -0.4 °F 3.9 °F 70% 30.56 in 10.0 mi North 9.2 mph - N/A   Clear
10:52 AM 15.1 °F 2.5 °F 5.0 °F 64% 30.61 in 10.0 mi NNE 10.4 mph - N/A   Clear
11:52 AM 17.1 °F 6.6 °F 5.0 °F 59% 30.61 in 10.0 mi North 8.1 mph - N/A   Clear
12:52 PM 19.0 °F 11.1 °F 7.0 °F 59% 30.60 in 10.0 mi North 5.8 mph - N/A   Clear
1:52 PM 19.9 °F 14.9 °F 5.0 °F 52% 30.58 in 10.0 mi WNW 3.5 mph - N/A   Clear
2:52 PM 21.0 °F 14.6 °F -0.9 °F 38% 30.59 in 10.0 mi NNW 4.6 mph - N/A   Clear
3:52 PM 19.9 °F 11.1 °F -0.9 °F 40% 30.59 in 10.0 mi North 6.9 mph - N/A   Clear
4:52 PM 18.0 °F 11.1 °F -2.9 °F 40% 30.59 in 10.0 mi North 4.6 mph - N/A   Clear
5:52 PM 16.0 °F 8.8 °F -0.0 °F 49% 30.60 in 10.0 mi NE 4.6 mph - N/A   Clear
6:52 PM 15.1 °F 7.7 °F 1.0 °F 54% 30.59 in 10.0 mi North 4.6 mph - N/A   Clear
7:52 PM 12.0 °F - -0.0 °F 59% 30.59 in 10.0 mi Calm Calm - N/A   Clear
8:52 PM 10.9 °F 4.7 °F 1.9 °F 67% 30.56 in 10.0 mi SSE 3.5 mph - N/A   Clear
9:52 PM 12.9 °F - 5.0 °F 71% 30.55 in 10.0 mi Calm Calm - N/A   Clear
10:52 PM 15.1 °F 9.4 °F 6.1 °F 68% 30.53 in 10.0 mi ESE 3.5 mph - N/A   Clear
11:52 PM 15.1 °F - 7.0 °F 70% 30.53 in 10.0 mi Calm Calm - N/A   Clear